Flag for Switzerland Weather past 2 weeks in Thun, Bern, Switzerland

Now
70 °F

Light rain. Broken clouds.


Feels Like: 70 °F
Forecast: 56 / 68 °F
Wind: 10 mph from West

Location: Bern / Belp

Current Time: Sep 1, 2015 at 3:04:49 PM

Latest Report: Sep 1, 2015 at 2:20 PM


Visibility: N/A

Pressure: 29.98 "Hg (28.10 "Hg at 557m altitude)

Humidity: 69%

Dew point: 59 °F

Location of ThunLocation

Historic Weather in Thun — Graph

°F

Thun temperature yesterday

Maximum temperature yesterday: 88 °F (at 2:20 PM)
Minimum temperature yesterday: 61 °F (at 3:20 AM)
Average temperature yesterday: 74 °F

Past Weeks' High & Low Weather Summary

 TemperatureHumidityPressure
High90 °F (Aug 29, 6:20 PM)100% (Aug 18, 1:20 AM)30.27 "Hg (Aug 18, 1:20 AM)
Low48 °F (Aug 20, 3:20 AM)31% (Aug 31, 4:20 PM)29.74 "Hg (Aug 24, 4:20 AM)
Average65 °F79%30.05 "Hg
* Reported Aug 17 2:20 PM — Sep 1 2:20 PM, Thun, Weather by CustomWeather, © 2015

Note: Actual official high and low records may vary slightly from our data, if they occured in-between our weather recording intervals... More about our weather records

Advertising

Thun weather history for previous 24 hours

 ConditionsComfort  
Time TempWeatherWind HumidityBarometerVisibility
2:20 PM
Tue, Sep 1
70 °FLight rain. Broken clouds.10 mph69%29.98 "HgN/A
1:20 PM72 °FBroken clouds.16 mph65%29.95 "HgN/A
12:50 PM72 °FBroken clouds.17 mph65%29.95 "HgN/A
12:20 PM72 °FPartly sunny.13 mph65%29.95 "HgN/A
11:50 AM72 °FBroken clouds.15 mph65%29.95 "HgN/A
11:20 AM72 °FPartly sunny.12 mph65%29.92 "HgN/A
10:50 AM72 °FPartly sunny.6 mph73%29.92 "HgN/A
10:20 AM70 °FScattered clouds.3 mph83%29.92 "HgN/A
9:50 AM66 °FSprinkles. Broken clouds.3 mph88%29.92 "HgN/A
9:20 AM66 °FBroken clouds.3 mph94%29.89 "HgN/A
8:50 AM66 °FScattered clouds.3 mph88%29.89 "HgN/A
8:20 AM66 °FPartly sunny.2 mph83%29.89 "HgN/A
7:50 AM64 °FPartly sunny.7 mph88%29.89 "HgN/A
7:20 AM63 °FPassing clouds.6 mph94%29.89 "HgN/A
6:50 AM63 °FPassing clouds.3 mph88%29.89 "HgN/A
5:20 AM64 °FPassing clouds.1 mph88%29.92 "HgN/A
4:50 AM64 °FPassing clouds.1 mph88%29.92 "HgN/A
4:20 AM64 °FPassing clouds.1 mph88%29.92 "HgN/A
3:50 AM64 °FPartly cloudy.1 mph88%29.92 "HgN/A
3:20 AM64 °FPassing clouds.2 mph88%29.95 "HgN/A
2:50 AM63 °FPassing clouds.1 mph94%29.95 "HgN/A
2:20 AM63 °FMild.1 mph88%29.95 "HgN/A
1:50 AM64 °FPartly cloudy.2 mph88%29.95 "HgN/A
1:20 AM64 °FOvercast.1 mph88%29.98 "HgN/A
12:50 AM64 °FPassing clouds.1 mph83%29.95 "HgN/A
12:20 AM66 °FPassing clouds.2 mph78%29.95 "HgN/A
11:20 PM
Mon, Aug 31
70 °FPassing clouds.6 mph69%29.95 "HgN/A
10:50 PM68 °FClear.7 mph73%29.95 "Hg10 mi
10:20 PM70 °FClear.1 mph69%29.95 "Hg10 mi
9:50 PM75 °FPassing clouds.5 mph54%29.95 "HgN/A
9:20 PM77 °FClear.6 mph47%29.95 "Hg10 mi
8:50 PM79 °FPassing clouds.7 mph45%29.95 "HgN/A
8:20 PM81 °FSunny.7 mph42%29.95 "Hg10 mi
7:50 PM81 °FSunny.5 mph45%29.95 "Hg10 mi
7:20 PM84 °FSunny.8 mph37%29.98 "Hg10 mi
6:50 PM84 °FSunny.10 mph37%29.95 "Hg10 mi
6:20 PM86 °FPassing clouds.12 mph35%29.95 "HgN/A
5:50 PM86 °FSunny.14 mph35%29.98 "Hg10 mi
5:20 PM88 °FSunny.13 mph33%29.98 "Hg10 mi
4:50 PM88 °FPassing clouds.10 mph35%29.98 "HgN/A
4:20 PM88 °FPassing clouds.10 mph31%29.98 "HgN/A
3:50 PM88 °FPassing clouds.5 mph35%29.98 "HgN/A
3:20 PM86 °FPassing clouds.6 mph38%30.01 "HgN/A
Weather by CustomWeather, © 2015

See weather overviewHow to use our weather pages